EIN263 EGBB-EIDW

Flight info

Callsign EIN263
Flight time N/A
Altitude 24000
Route LUVUM DCT NANTI Y53 WAL/N0440F280 L10 PENIL/N0415F240 L28 LELDO/N0439F280 M145 BAGSO BAGSO3R
Aircraft A320/M-SDE3FGHIRWY/LB1

Departure

Time 2026-05-04 09:49
Airport Birmingham Airport (EGBB)

Arrival

Time N/A
Airport Dublin Airport (EIDW)
Time Latitude Longitude Altitude Speed Heading
2026-05-04 09:30 52.45116 -1.73490 323 ft 0 kts 141°
2026-05-04 09:31 52.45115 -1.73490 324 ft 0 kts 141°
2026-05-04 09:41 52.45120 -1.73496 323 ft 4 kts 141°
2026-05-04 09:42 52.45171 -1.73548 320 ft 0 kts 236°
2026-05-04 09:44 52.45163 -1.73569 323 ft 11 kts 235°
2026-05-04 09:44 52.45105 -1.73706 323 ft 14 kts 227°
2026-05-04 09:44 52.45042 -1.73815 323 ft 12 kts 232°
2026-05-04 09:46 52.44364 -1.73448 323 ft 3 kts 240°
2026-05-04 09:47 52.44363 -1.73451 323 ft 2 kts 240°
2026-05-04 09:47 52.44331 -1.73534 323 ft 10 kts 236°
2026-05-04 09:49 52.48163 -1.77862 1867 ft 173 kts 329°
2026-05-04 09:49 52.49277 -1.78872 2178 ft 193 kts 346°
2026-05-04 09:49 52.50678 -1.78975 2476 ft 214 kts
2026-05-04 09:51 52.61206 -1.76797 6014 ft 272 kts
2026-05-04 09:51 52.63085 -1.76417 6053 ft 272 kts
2026-05-04 09:51 52.64962 -1.76037 6058 ft 272 kts
2026-05-04 09:51 52.66840 -1.75654 6063 ft 271 kts
2026-05-04 09:52 52.68700 -1.75282 6501 ft 271 kts
2026-05-04 09:52 52.70583 -1.75495 7005 ft 273 kts 343°
2026-05-04 09:52 52.72304 -1.76760 7501 ft 273 kts 323°
2026-05-04 09:52 52.73677 -1.78914 8037 ft 274 kts 309°
2026-05-04 09:53 52.74925 -1.81321 8554 ft 277 kts 310°
2026-05-04 09:53 52.76189 -1.83745 9083 ft 279 kts 309°
2026-05-04 09:53 52.77469 -1.86199 9621 ft 289 kts 310°
2026-05-04 09:53 52.78810 -1.88773 10135 ft 302 kts 310°
2026-05-04 09:54 52.80206 -1.91451 10639 ft 314 kts 310°
2026-05-04 09:54 52.81660 -1.94242 11138 ft 326 kts 309°
2026-05-04 09:54 52.83160 -1.97128 11644 ft 336 kts 309°
2026-05-04 09:54 52.84703 -2.00105 12172 ft 346 kts 309°
2026-05-04 09:55 52.86288 -2.03166 12668 ft 355 kts 310°
2026-05-04 09:55 52.87913 -2.06301 13213 ft 362 kts 310°
2026-05-04 09:55 52.89575 -2.09503 13751 ft 370 kts 310°
2026-05-04 09:55 52.91263 -2.12764 14247 ft 376 kts 310°
2026-05-04 09:56 52.92977 -2.16084 14731 ft 382 kts 309°
2026-05-04 09:56 52.94719 -2.19465 15230 ft 388 kts 310°
2026-05-04 09:56 52.96504 -2.22935 15737 ft 393 kts 310°
2026-05-04 09:56 52.98289 -2.26408 16250 ft 398 kts 309°